Location: Middelsbur
(53.6609°N, 7.5020°E)
Time: 00:26:59
(UTC+00:00)

Cosmos 1892 - Pass Details

Date: 06 July 2020
Orbit: 505 x 523 km, 82.5° (Epoch: 03 August)

Event Time Altitude Azimuth Distance (km) Brightness Sun altitude
Exits shadow 20:51:22 - 134° (SE) 1,926 4.9 -6.0°
Reaches altitude 10° 20:52:02 10° 127° (SE) 1,728 4.7 -6.1°
Maximum altitude 20:54:33 17° 86° (E) 1,342 4.5 -6.3°
Drops below altitude 10° 20:57:06 10° 44° (NE) 1,744 5.5 -6.5°
Sets 20:59:46 0° 24° (NNE) 2,641 6.7 -6.7°
